FW9496 Weather Reports


time (UTC)temp
C
wind
direction
speed
KPH
gust
KPH
rain 1hr
cm
rain 24hr
cm
rain mn
cm
humidity
%
barometer
mb
20260906225032 25 212 24.1 38.6 0.00 0.00 0.00 21 1012.0
20260906224532 25 199 24.1 38.6 0.00 0.00 0.00 21 1012.2
20260906224030 25 159 22.5 41.8 0.00 0.00 0.00 21 1012.0
20260906223530 25 207 20.9 41.8 0.00 0.00 0.00 21 1012.2
20260906223032 25 191 20.9 37.0 0.00 0.00 0.00 21 1012.2
20260906222530 25 181 20.9 37.0 0.00 0.00 0.00 21 1011.9
20260906222031 25 199 19.3 32.2 0.00 0.00 0.00 21 1011.9
20260906221530 25 166 19.3 33.8 0.00 0.00 0.00 21 1012.0
20260906221032 26 150 19.3 33.8 0.00 0.00 0.00 21 1012.2
20260906220530 25 166 19.3 32.2 0.00 0.00 0.00 21 1012.2
20260906220030 26 188 19.3 32.2 0.00 0.00 0.00 20 1012.0
20260906215030 26 163 16.1 35.4 0.00 0.00 0.00 20 1012.3
20260906214530 26 182 17.7 32.2 0.00 0.00 0.00 20 1012.2
20260906214030 26 209 19.3 32.2 0.00 0.00 0.00 19 1012.3
20260906213531 26 175 17.7 32.2 0.00 0.00 0.00 19 1012.3
20260906212530 26 238 17.7 25.7 0.00 0.00 0.00 20 1012.3
20260906212032 26 215 19.3 35.4 0.00 0.00 0.00 21 1012.4
20260906211532 25 165 19.3 35.4 0.00 0.00 0.00 20 1012.7
20260906211030 25 189 17.7 29.0 0.00 0.00 0.00 20 1012.7
20260906210530 25 157 19.3 25.7 0.00 0.00 0.00 20 1012.7
20260906210031 25 158 20.9 35.4 0.00 0.00 0.00 21 1012.8
20260906205531 25 171 19.3 35.4 0.00 0.00 0.00 21 1012.8
20260906205030 25 190 19.3 33.8 0.00 0.00 0.00 21 1012.8
20260906204803 26 198 19.3 30.6 0.00 0.00 0.00 21 1012.9
20260906204031 26 200 20.9 37.0 0.00 0.00 0.00 21 1012.8
20260906203529 26 173 22.5 37.0 0.00 0.00 0.00 21 1012.9
20260906203034 25 155 22.5 41.8 0.00 0.00 0.00 22 1012.9
20260906202025 25 174 22.5 35.4 0.00 0.00 0.00 23 1012.9
20260906201527 26 166 17.7 35.4 0.00 0.00 0.00 22 1012.9
20260906201025 26 178 16.1 24.1 0.00 0.00 0.00 22 1012.9
20260906200525 26 171 14.5 24.1 0.00 0.00 0.00 22 1012.8
20260906200024 26 142 16.1 29.0 0.00 0.00 0.00 23 1012.8
20260906195526 26 193 16.1 29.0 0.00 0.00 0.00 22 1013.0
20260906195025 26 193 14.5 29.0 0.00 0.00 0.00 22 1013.1
20260906194524 26 193 12.9 24.1 0.00 0.00 0.00 22 1013.3
20260906194024 25 172 14.5 22.5 0.00 0.00 0.00 23 1013.3
20260906193521 25 172 14.5 24.1 0.00 0.00 0.00 23 1013.3
20260906193020 25 195 11.3 24.1 0.00 0.00 0.00 23 1013.3
20260906192020 25 141 6.4 9.7 0.00 0.00 0.00 23 1013.3
20260906191019 25 115 4.8 12.9 0.00 0.00 0.00 22 1013.4
20260906190018 25 159 6.4 16.1 0.00 0.00 0.00 22 1013.7
20260906185518 26 113 4.8 11.3 0.00 0.00 0.00 22 1013.7
20260906185016 26 116 4.8 11.3 0.00 0.00 0.00 22 1014.0
20260906184515 26 103 4.8 9.7 0.00 0.00 0.00 22 1014.1
20260906184015 25 88 4.8 11.3 0.00 0.00 0.00 23 1014.2
20260906183514 25 124 3.2 11.3 0.00 0.00 0.00 23 1014.5
20260906183016 25 141 4.8 11.3 0.00 0.00 0.00 22 1014.6
20260906182515 25 152 4.8 11.3 0.00 0.00 0.00 23 1014.7
20260906182014 25 133 3.2 11.3 0.00 0.00 0.00 23 1014.9
20260906181515 25 127 3.2 8.0 0.00 0.00 0.00 22 1015.1
20260906181014 25 108 6.4 17.7 0.00 0.00 0.00 23 1015.2
20260906175514 24 192 6.4 16.1 0.00 0.00 0.00 23 1015.5
20260906175012 24 167 4.8 12.9 0.00 0.00 0.00 24 1015.5
20260906174513 24 295 6.4 12.9 0.00 0.00 0.00 23 1015.5
20260906173510 24 76 4.8 11.3 0.00 0.00 0.00 23 1015.7
20260906173240 23 57 4.8 14.5 0.00 0.00 0.00 23 1015.8
20260906172508 23 26 4.8 14.5 0.00 0.00 0.00 23 1015.8
20260906172007 23 5 4.8 11.3 0.00 0.00 0.00 23 1015.8
20260906171504 23 46 6.4 14.5 0.00 0.00 0.00 24 1015.9
20260906171004 23 5 4.8 14.5 0.00 0.00 0.00 24 1015.9
20260906170505 22 47 4.8 12.9 0.00 0.00 0.00 24 1016.0
20260906170002 22 51 6.4 12.9 0.00 0.00 0.00 25 1016.0
20260906165504 22 37 4.8 9.7 0.00 0.00 0.00 25 1016.0
20260906165002 22 22 4.8 11.3 0.00 0.00 0.00 25 1016.3
20260906164504 22 24 4.8 11.3 0.00 0.00 0.00 25 1016.1
20260906164002 21 52 6.4 12.9 0.00 0.00 0.00 26 1016.3
20260906163001 21 0 3.2 11.3 0.00 0.00 0.00 27 1016.3
20260906162002 20 13 3.2 8.0 0.00 0.00 0.00 29 1016.4
20260906161502 20 16 3.2 8.0 0.00 0.00 0.00 30 1016.5
20260906161004 19 11 3.2 8.0 0.00 0.00 0.00 30 1016.5
20260906160502 19 17 3.2 11.3 0.00 0.00 0.00 31 1016.5
20260906160002 18 5 3.2 11.3 0.00 0.00 0.00 32 1016.5
20260906155502 18 9 3.2 8.0 0.00 0.00 0.00 32 1016.6
20260906155005 18 12 3.2 8.0 0.00 0.00 0.00 33 1016.6
20260906154502 18 344 1.6 6.4 0.00 0.00 0.00 33 1016.8
20260906154002 17 344 1.6 6.4 0.00 0.00 0.00 33 1016.6
20260906153503 17 331 1.6 3.2 0.00 0.00 0.00 35 1016.8
20260906153003 16 331 1.6 6.4 0.00 0.00 0.00 37 1016.9
20260906152501 16 331 1.6 6.4 0.00 0.00 0.00 38 1016.8
20260906152001 16 331 1.6 6.4 0.00 0.00 0.00 39 1016.9
20260906151502 15 331 1.6 6.4 0.00 0.00 0.00 40 1016.9
20260906150501 15 331 3.2 8.0 0.00 0.00 0.00 43 1016.9
20260906150001 15 313 1.6 8.0 0.00 0.00 0.00 44 1016.9
20260906145503 15 53 1.6 6.4 0.00 0.00 0.00 44 1017.0
20260906145002 14 57 0.0 3.2 0.00 0.00 0.00 44 1017.0
20260906144501 13 57 0.0 0.0 0.00 0.00 0.00 45 1017.1
20260906144002 13 57 0.0 0.0 0.00 0.00 0.00 47 1017.0
20260906143502 12 57 0.0 1.6 0.00 0.00 0.00 48 1017.0
20260906143002 12 57 0.0 1.6 0.00 0.00 0.00 49 1017.0
20260906142500 11 57 0.0 1.6 0.00 0.00 0.00 51 1017.0
20260906142000 11 57 1.6 6.4 0.00 0.00 0.00 52 1017.0
20260906141503 11 57 1.6 6.4 0.00 0.00 0.00 52 1017.0
20260906141001 11 57 1.6 6.4 0.00 0.00 0.00 53 1016.9
20260906140951 11 57 3.2 8.0 0.00 0.00 0.00 53 1016.9
20260906140002 11 60 3.2 9.7 0.00 0.00 0.00 53 1016.9
20260906135500 11 52 3.2 9.7 0.00 0.00 0.00 54 1016.8
20260906135000 11 252 1.6 6.4 0.00 0.00 0.00 52 1016.8
20260906134502 11 262 1.6 6.4 0.00 0.00 0.00 53 1016.6
20260906134004 10 282 3.2 6.4 0.00 0.00 0.00 53 1016.6
20260906133502 10 255 3.2 6.4 0.00 0.00 0.00 54 1016.8
20260906132503 10 224 3.2 11.3 0.00 0.00 0.00 56 1016.9
20260906132001 9 310 1.6 6.4 0.00 0.00 0.00 57 1016.6
20260906131501 9 316 3.2 6.4 0.00 0.00 0.00 57 1016.5
20260906131001 9 316 1.6 6.4 0.00 0.00 0.00 57 1016.6
20260906130502 8 316 1.6 6.4 0.00 0.00 0.00 57 1016.3
20260906130001 8 318 3.2 6.4 0.00 0.00 0.00 58 1016.4
20260906125501 8 318 3.2 6.4 0.00 0.00 0.00 58 1016.4
20260906125001 8 318 3.2 6.4 0.00 0.00 0.00 59 1016.4
20260906124503 8 318 3.2 6.4 0.00 0.00 0.00 59 1016.3
20260906124001 8 318 3.2 6.4 0.00 0.00 0.00 59 1016.3
20260906123002 8 318 3.2 6.4 0.00 0.00 0.00 58 1016.3
20260906122735 8 318 3.2 6.4 0.00 0.00 0.00 58 1016.3
20260906122001 8 315 3.2 6.4 0.00 0.00 0.00 57 1016.1
20260906121504 8 313 1.6 6.4 0.00 0.00 0.00 56 1016.1
20260906121002 9 306 0.0 3.2 0.00 0.00 0.00 55 1016.1
20260906120501 9 306 1.6 3.2 0.00 0.00 0.00 54 1016.1
20260906120001 10 305 1.6 3.2 0.00 0.00 0.00 54 1016.3
20260906115502 10 282 1.6 3.2 0.00 0.00 0.00 57 1016.1
20260906115001 10 282 1.6 3.2 0.00 0.00 0.00 54 1016.1
20260906114502 10 283 1.6 3.2 0.00 0.00 0.00 52 1016.3
20260906114002 10 283 0.0 1.6 0.00 0.00 0.00 53 1016.3
20260906113502 10 283 0.0 6.4 0.00 0.00 0.00 55 1016.3
20260906112501 10 283 1.6 6.4 0.00 0.00 0.00 55 1016.4
20260906112234 10 283 1.6 6.4 0.00 0.00 0.00 56 1016.5
20260906111004 9 283 3.2 8.0 0.00 0.00 0.00 55 1016.4
20260906110459 10 68 3.2 6.4 0.00 0.00 0.00 53 1016.4
20260906105953 10 47 3.2 8.0 0.00 0.00 0.00 51 1016.3
20260906105452 11 47 4.8 8.0 0.00 0.00 0.00 49 1016.3
20260906104949 11 49 6.4 11.3 0.00 0.00 0.00 48 1016.1
20260906104450 11 337 8.0 11.3 0.00 0.00 0.00 48 1016.0
20260906103447 11 330 4.8 9.7 0.00 0.00 0.00 49 1016.1
20260906102948 11 348 6.4 9.7 0.00 0.00 0.00 48 1016.1
20260906101948 11 343 8.0 11.3 0.00 0.00 0.00 49 1016.0
20260906101445 11 338 6.4 11.3 0.00 0.00 0.00 49 1016.0
20260906100947 11 345 4.8 9.7 0.00 0.00 0.00 50 1015.9
20260906100447 11 342 4.8 8.0 0.00 0.00 0.00 50 1015.9
20260906100216 11 346 4.8 8.0 0.00 0.00 0.00 48 1015.8
20260906095447 12 340 4.8 8.0 0.00 0.00 0.00 47 1015.7
20260906094946 12 333 1.6 8.0 0.00 0.00 0.00 47 1015.7
20260906094444 12 328 1.6 4.8 0.00 0.00 0.00 47 1015.7
20260906092941 12 328 0.0 3.2 0.00 0.00 0.00 48 1015.4
20260906092440 12 328 1.6 3.2 0.00 0.00 0.00 48 1015.4
20260906091941 12 328 0.0 1.6 0.00 0.00 0.00 50 1015.4
20260906091440 12 328 0.0 0.0 0.00 0.00 0.00 50 1015.4
20260906090940 12 328 0.0 1.6 0.00 0.00 0.00 50 1015.4
20260906090440 12 328 0.0 1.6 0.00 0.00 0.00 49 1015.4
20260906085937 12 328 0.0 1.6 0.00 0.00 0.00 48 1015.3
20260906084935 12 328 0.0 3.2 0.00 0.00 0.00 47 1015.3
20260906084437 12 328 0.0 1.6 0.00 0.00 0.00 46 1015.2
20260906083936 12 328 1.6 6.4 0.00 0.00 0.00 46 1015.2
20260906083437 12 328 3.2 8.0 0.00 0.00 0.00 46 1015.2
20260906082937 12 328 6.4 9.7 0.00 0.00 0.00 45 1015.3
20260906082438 12 331 6.4 9.7 0.00 0.00 0.00 45 1015.2
20260906081938 12 345 6.4 9.7 0.00 0.00 0.00 45 1015.2
20260906081429 12 344 3.2 9.7 0.00 0.00 0.00 45 1015.2
20260906075931 13 344 1.6 6.4 0.00 0.00 0.00 42 1015.3
20260906075431 14 308 0.0 1.6 0.00 0.00 0.00 43 1015.3
20260906074931 14 305 0.0 0.0 0.00 0.00 0.00 43 1015.3
20260906074430 15 305 0.0 1.6 0.00 0.00 0.00 42 1015.3
20260906073930 15 305 0.0 1.6 0.00 0.00 0.00 41 1015.3
20260906073429 15 305 0.0 1.6 0.00 0.00 0.00 41 1015.3
20260906072429 15 305 1.6 6.4 0.00 0.00 0.00 40 1015.3
20260906071928 15 306 3.2 8.0 0.00 0.00 0.00 40 1015.3
20260906071431 15 311 3.2 8.0 0.00 0.00 0.00 40 1015.3
20260906070929 15 333 1.6 6.4 0.00 0.00 0.00 40 1015.3
20260906070431 15 333 1.6 4.8 0.00 0.00 0.00 40 1015.3
20260906065929 15 345 1.6 6.4 0.00 0.00 0.00 39 1015.3
20260906065431 16 5 1.6 6.4 0.00 0.00 0.00 38 1015.3
20260906064928 16 149 0.0 1.6 0.00 0.00 0.00 38 1015.3
20260906064428 16 149 1.6 3.2 0.00 0.00 0.00 37 1015.3
20260906062930 17 152 1.6 6.4 0.00 0.00 0.00 36 1015.2
20260906062431 17 152 1.6 6.4 0.00 0.00 0.00 35 1015.3
20260906061428 17 158 1.6 8.0 0.00 0.00 0.00 34 1015.2
20260906060930 17 158 1.6 9.7 0.00 0.00 0.00 34 1015.3
20260906060432 17 162 3.2 9.7 0.00 0.00 0.00 33 1015.3
20260906055929 18 160 4.8 11.3 0.00 0.00 0.00 33 1015.3
20260906055429 18 152 6.4 11.3 0.00 0.00 0.00 33 1015.2
20260906054931 18 146 4.8 9.7 0.00 0.00 0.00 33 1015.2
20260906054430 18 144 1.6 8.0 0.00 0.00 0.00 33 1015.2
20260906053929 18 139 1.6 8.0 0.00 0.00 0.00 33 1015.2
20260906053429 18 128 0.0 6.4 0.00 0.00 0.00 33 1015.2
20260906052931 18 134 3.2 9.7 0.00 0.00 0.00 33 1015.2
20260906052429 18 150 4.8 11.3 0.00 0.00 0.00 31 1015.1
20260906051928 19 163 4.8 11.3 0.00 0.00 0.00 30 1015.1
20260906051428 19 161 3.2 8.0 0.00 0.00 0.00 30 1015.1
20260906050930 19 167 4.8 11.3 0.00 0.00 0.00 30 1015.2
20260906050429 19 184 6.4 11.3 0.00 0.00 0.00 29 1015.1
20260906045929 19 195 6.4 11.3 0.00 0.00 0.00 30 1015.2
20260906044929 19 188 9.7 14.5 0.00 0.00 0.00 29 1015.1
20260906044430 20 202 9.7 16.1 0.00 0.00 0.00 29 1015.2
20260906042928 20 205 11.3 19.3 0.00 0.00 0.00 27 1015.2
20260906042429 21 203 11.3 19.3 0.00 0.00 0.00 27 1015.2
20260906041428 21 203 9.7 17.7 0.00 0.00 0.00 27 1015.3
20260906040928 20 194 9.7 17.7 0.00 0.00 0.00 27 1015.2
20260906040430 20 191 9.7 16.1 0.00 0.00 0.00 27 1015.2
20260906035929 20 202 9.7 14.5 0.00 0.00 0.00 27 1015.2
20260906035429 21 202 11.3 16.1 0.00 0.00 0.00 27 1015.1
20260906034930 21 194 11.3 16.1 0.00 0.00 0.00 27 1015.1
20260906034430 21 181 9.7 16.1 0.00 0.00 0.00 27 1015.1
20260906033930 21 185 8.0 16.1 0.00 0.00 0.00 28 1015.1
20260906033430 21 192 4.8 16.1 0.00 0.00 0.00 28 1015.1
20260906032429 21 155 1.6 6.4 0.00 0.00 0.00 29 1015.1
20260906031930 21 163 4.8 9.7 0.00 0.00 0.00 28 1014.9
20260906031429 21 146 8.0 11.3 0.00 0.00 0.00 28 1014.8
20260906030931 21 166 9.7 14.5 0.00 0.00 0.00 27 1014.8
20260906030428 21 184 9.7 14.5 0.00 0.00 0.00 27 1014.7
20260906025928 21 186 8.0 14.5 0.00 0.00 0.00 27 1014.7
20260906025429 21 185 8.0 14.5 0.00 0.00 0.00 27 1014.6
20260906024932 21 194 8.0 14.5 0.00 0.00 0.00 27 1014.6
20260906024429 21 176 8.0 14.5 0.00 0.00 0.00 27 1014.6
20260906023928 22 180 9.7 14.5 0.00 0.00 0.00 27 1014.6
20260906023429 22 190 8.0 12.9 0.00 0.00 0.00 27 1014.5
20260906022429 22 184 8.0 11.3 0.00 0.00 0.00 26 1014.3
20260906021929 22 167 8.0 12.9 0.00 0.00 0.00 26 1014.2
20260906021429 22 177 8.0 12.9 0.00 0.00 0.00 25 1014.2
20260906020931 22 173 9.7 12.9 0.00 0.00 0.00 24 1014.2
20260906020429 23 184 9.7 12.9 0.00 0.00 0.00 24 1014.3
20260906015930 23 187 9.7 19.3 0.00 0.00 0.00 24 1014.2
20260906014929 23 178 12.9 22.5 0.00 0.00 0.00 23 1014.2
20260906014429 24 192 14.5 24.1 0.00 0.00 0.00 23 1014.1
20260906013929 24 202 16.1 29.0 0.00 0.00 0.00 23 1014.1
20260906012929 25 186 14.5 24.1 0.00 0.00 0.00 22 1014.1
20260906012430 25 169 14.5 22.5 0.00 0.00 0.00 21 1014.1
20260906011930 25 186 16.1 25.7 0.00 0.00 0.00 21 1014.1
20260906011431 25 179 14.5 25.7 0.00 0.00 0.00 20 1014.2
20260906010929 26 170 16.1 25.7 0.00 0.00 0.00 20 1014.1
20260906010430 26 165 17.7 25.7 0.00 0.00 0.00 19 1014.2
20260906005928 26 183 17.7 35.4 0.00 0.00 0.00 19 1014.1
20260906005430 26 182 19.3 35.4 0.00 0.00 0.00 19 1014.2
20260906004929 26 192 17.7 32.2 0.00 0.00 0.00 20 1014.1
20260906004429 26 170 16.1 32.2 0.00 0.00 0.00 19 1014.1
20260906003929 26 183 16.1 33.8 0.00 0.00 0.00 19 1014.1
20260906003430 26 192 17.7 33.8 0.00 0.00 0.00 19 1014.1
20260906002928 26 163 17.7 29.0 0.00 0.00 0.00 19 1013.9
20260906002429 27 159 17.7 29.0 0.00 0.00 0.00 19 1014.0
20260906001929 27 165 17.7 29.0 0.00 0.00 0.00 19 1014.0
20260906001429 27 179 17.7 32.2 0.00 0.00 0.00 19 1013.9
20260906000429 27 183 16.1 30.6 0.00 0.00 0.00 19 1013.9
20260905235929 27 173 16.1 29.0 0.00 0.00 0.00 18 1013.9
20260905235430 27 166 16.1 25.7 0.00 0.00 0.00 18 1013.9
20260905234930 27 160 17.7 25.7 0.00 0.00 0.00 18 1013.7
20260905234429 27 187 17.7 25.7 0.00 0.00 0.00 18 1013.9
20260905232924 27 173 16.1 30.6 0.00 0.00 0.00 18 1013.7
20260905232417 27 153 17.7 30.6 0.00 0.00 0.00 18 1013.9
20260905231913 27 198 16.1 30.6 0.00 0.00 0.00 18 1013.7
20260905231406 27 181 14.5 30.6 0.00 0.00 0.00 18 1013.9
20260905230906 27 144 11.3 19.3 0.00 0.00 0.00 19 1013.9
20260905225907 27 152 14.5 29.0 0.00 0.00 0.00 18 1014.0
20260905225404 27 176 14.5 25.7 0.00 0.00 0.00 18 1013.9